Location: Proctor
(47.8934°N, 114.3048°W)
Time: 15:36:22
(UTC+00:00)

Courier 1B Rocket - Pass Details

Date: 17 June 2024
Orbit: 920 x 1201 km, 28.2° (Epoch: 16 July)

Event Time Altitude Azimuth Distance (km) Brightness Sun altitude
Rises 16:03:16 0° 245° (WSW) 4,021 7.8 41.2°
Reaches altitude 10° 16:08:25 10° 216° (SW) 3,101 7.5 42.0°
Maximum altitude 16:10:55 12° 197° (SSW) 2,976 7.6 42.4°
Drops below altitude 10° 16:13:27 10° 177° (S) 3,122 7.9 42.9°
Sets 16:18:42 0° 149° (SSE) 4,086 8.7 43.7°
